METEOR 2-5 DEB, 39605

Orbit data source: Space-Track

METEOR 2-5 DEB, 39605 is space debris in LEO originally from a launch on Wed, 31 Oct 1979 UTC launched from the Plesetsk Missile And Space Complex (PKMTR). Debris objects in space refer to the collection of defunct objects orbiting the Earth. Examples of debris include non-operational satellites, rocket bodies, and fragments generated from explosions, collisions, or faulty payload assembly.

Loading next visibility...
Identifier
39605, 1979-095CG
Orbit
LEO
Country
Flag of CISCIS
Related business
Manufacturer
Unknown
Mission
Spacecraft
Bus & Motor
Unknown
Mass
Unknown
Launch date (UTC)
1979-10-31 (47 years ago)
Launch vehicle
Unknown
Launch site
Plesetsk Missile And Space Complex (PKMTR)
Object type
Payload
Rocket body
Debris
Shape & HBR
Unknown shape, 0.1 m
Radar Cross Section
Small (<0.1 m²)

Expand to show TLE details & history
Last TLE update: 3 weeks ago

TLE from 3 weeks ago
0 METEOR 2-5 DEB
1 39605U 79095CG  26153.22093812  .00014357  00000-0  34710-2 0  9994
2 39605  81.1761 121.4006 0020979  20.7603  40.2443 14.52879486650538
Epoch: 2026-06-02T05:18Z
TLE epoch observation values (Epoch: 2026-06-02T05:18:09.053Z)
Latitude
60.05015°
Longitude
166.70957°
Altitude
715.097 km
Speed
7.51 km/s
True Right ascension
09h 07m 46s
True Declination
59° 54' 01"
Sunlit
Object was in daylight at epoch
Visualization orbit readout
Latitude
Unknown
Longitude
Unknown
Altitude
Unknown
Speed
Unknown
Apparent Right ascension
Unknown
Apparent Declination
Unknown
Sunlit
N/A
Visualization observer readout
Local Sidereal Time
02:31:29
Azimuth
Unknown
Elevation
Unknown
Doppler factor
Unknown
Orbital elements
Apogee altitude
728.257 km
Perigee altitude
698.502 km
Semi-major axis
7,091.517 km
Eccentricity
0.0021
Inclination
81.1761°
RAAN
121.4006°
Arg. of periapsis
20.7603°
True anomaly
40.39992°
Mean anomaly
40.2443°
Eccentric anomaly
40.32208°
Mean motion
3.63441 °/min
Orbital period
99.05 mins
BSTAR
0.003471
Loading maneuver chart data...
Computing Atmospheric mass density...

Documentation

Showing up to 5 results
|